Le nostre stazioni meteo in Italia

Pubblicità
Il mio iltempo24.it
Lecce, Italia (16332): Temperatura & dewpoint: 13.08.2018 10:00:00 - 19.08.2018 10:00:00 (CEST)Lecce, Italia (16332): velocità del vento: 13.08.2018 10:00:00 - 19.08.2018 10:00:00 (CEST)Lecce, Italia (16332): direzione del vento: 13.08.2018 10:00:00 - 19.08.2018 10:00:00 (CEST)Lecce, Italia (16332): reduced air pressure: 13.08.2018 10:00:00 - 19.08.2018 10:00:00 (CEST)Lecce, Italia (16332): visibility: 13.08.2018 10:00:00 - 19.08.2018 10:00:00 (CEST)
Data & Tempo tt [°C] td [°C] ff [km/h] ff [kn] dd ppp [hPa] vv [km]
19.08.2018 10:00:00 - - - - - - -
19.08.2018 09:00:00 26,0 23,0 16 9 N - 10
19.08.2018 08:00:00 24,0 21,1 13 7 NNO 1014,2 10
19.08.2018 07:00:00 24,0 22,0 16 9 NNO - 10
19.08.2018 06:00:00 23,0 22,0 8 4 ONO - 10
19.08.2018 05:00:00 23,0 22,0 8 4 NO 1014,0 10
19.08.2018 04:00:00 23,0 22,0 9 5 NNO - 10
19.08.2018 03:00:00 22,0 21,0 8 4 NO - 10
19.08.2018 02:00:00 23,0 21,8 8 4 NNO 1015,0 10
19.08.2018 01:00:00 23,0 22,0 5 3 NO - 10
19.08.2018 00:00:00 23,0 22,0 8 4 NNO - 10
18.08.2018 23:00:00 23,8 22,1 9 5 NNO 1014,9 10
18.08.2018 22:00:00 25,0 23,0 9 5 NNO - 10
18.08.2018 21:00:00 25,0 22,0 11 6 NNO - 10
18.08.2018 20:00:00 26,8 21,1 15 8 N 1014,0 10
18.08.2018 19:00:00 28,0 22,0 18 10 N - 10
18.08.2018 18:00:00 29,0 20,0 16 9 N - 10
18.08.2018 17:00:00 30,0 20,8 18 10 N 1014,1 10
18.08.2018 16:00:00 30,0 21,0 18 10 N - 10
18.08.2018 15:00:00 30,0 21,0 21 11 N - 10
18.08.2018 14:00:00 31,0 20,9 21 11 N 1014,4 10
18.08.2018 13:00:00 31,0 20,0 21 11 N - 10
18.08.2018 12:00:00 30,0 21,0 21 11 N - 10
18.08.2018 11:00:00 29,8 21,2 21 11 N 1014,9 10
18.08.2018 10:00:00 29,0 22,0 18 10 N - 10
18.08.2018 09:00:00 22,0 17,0 16 9 N - 10
18.08.2018 08:00:00 24,4 21,1 9 5 N 1013,8 10
18.08.2018 07:00:00 21,0 20,0 5 3 N - 10
18.08.2018 06:00:00 20,0 19,0 5 3 NO - 10
18.08.2018 05:00:00 21,2 19,9 8 4 NNO 1013,8 10
18.08.2018 04:00:00 21,0 20,0 5 3 NO - 10
18.08.2018 03:00:00 21,0 19,0 9 5 NNO - 10
18.08.2018 02:00:00 21,2 20,4 4 2 ONO 1014,2 10
18.08.2018 01:00:00 22,0 21,0 5 3 NO - 10
18.08.2018 00:00:00 22,0 20,0 5 3 NO - 10
17.08.2018 23:00:00 22,8 21,1 4 2 ONO 1013,9 10
17.08.2018 22:00:00 23,0 22,0 13 7 NO - 10
17.08.2018 21:00:00 24,0 22,0 8 4 NO - 10
17.08.2018 20:00:00 26,4 22,3 11 6 N 1013,2 10
17.08.2018 19:00:00 27,0 22,0 13 7 N - 10
17.08.2018 18:00:00 25,0 19,0 13 7 N - 10
17.08.2018 17:00:00 28,0 22,0 16 9 NNO 1012,6 10
17.08.2018 16:00:00 26,0 20,0 15 8 ONO - 10
17.08.2018 15:00:00 25,0 22,0 24 13 SO - 8
17.08.2018 14:00:00 28,0 22,0 22 12 N 1012,8 10
17.08.2018 13:00:00 28,0 18,0 21 11 NNE - 10
17.08.2018 12:00:00 30,0 20,0 18 10 NNE - 10
17.08.2018 11:00:00 29,4 20,5 18 10 NNE 1013,2 10
17.08.2018 10:00:00 28,0 22,0 22 12 N - 10
17.08.2018 09:00:00 27,0 22,0 18 10 NNO - 10
17.08.2018 08:00:00 23,2 20,9 8 4 NNO 1012,9 10
17.08.2018 07:00:00 20,0 19,0 2 1 O - 10
17.08.2018 06:00:00 20,0 19,0 4 2 NNO - 10
17.08.2018 05:00:00 19,8 18,8 5 3 OSO 1012,4 10
17.08.2018 04:00:00 19,0 18,0 5 3 O - 10
17.08.2018 03:00:00 20,0 19,0 5 3 NNO - 10
17.08.2018 02:00:00 20,2 19,2 5 3 NO 1012,9 10
17.08.2018 01:00:00 21,0 20,0 0 0 N - 10
17.08.2018 00:00:00 21,0 20,0 4 2 - - 10
16.08.2018 23:00:00 21,6 19,9 5 3 NNO 1012,7 10
16.08.2018 22:00:00 22,0 20,0 5 3 ONO - 10
16.08.2018 21:00:00 23,0 20,0 4 2 ENE - 10
16.08.2018 20:00:00 24,4 19,9 8 4 NNE 1012,4 10
16.08.2018 19:00:00 25,0 19,0 11 6 NNE - 10
16.08.2018 18:00:00 25,0 20,0 11 6 NNO - 10
16.08.2018 17:00:00 24,8 20,5 15 8 NO 1012,4 10
16.08.2018 16:00:00 25,0 20,0 15 8 NO - 10
16.08.2018 15:00:00 24,0 20,0 13 7 ONO - 10
16.08.2018 14:00:00 22,0 19,4 15 8 OSO 1012,3 10
16.08.2018 13:00:00 22,0 20,0 15 8 SO - 6
16.08.2018 12:00:00 23,0 18,0 28 15 S - 7
16.08.2018 11:00:00 28,2 20,7 16 9 N 1011,2 10
16.08.2018 10:00:00 27,0 21,0 21 11 N - 10
16.08.2018 09:00:00 25,0 21,0 13 7 NNO - 10
16.08.2018 08:00:00 23,4 21,1 15 8 NNO 1010,8 10
16.08.2018 07:00:00 22,0 21,0 9 5 NO - 10
16.08.2018 06:00:00 21,0 21,0 9 5 NNO - 10
16.08.2018 05:00:00 21,4 20,0 8 4 NNO 1011,1 10
16.08.2018 04:00:00 22,0 21,0 9 5 NNO - 10
16.08.2018 03:00:00 21,0 20,0 9 5 NNO - 10
16.08.2018 02:00:00 21,4 20,4 8 4 NNE 1011,5 10
16.08.2018 01:00:00 22,0 20,0 5 3 NO - 10
16.08.2018 00:00:00 22,0 21,0 41 22 NNO - 10
15.08.2018 23:00:00 23,4 21,1 4 2 NNE 1011,8 10
15.08.2018 22:00:00 23,0 21,0 9 5 NNO - 10
15.08.2018 21:00:00 24,0 22,0 9 5 N - 10
15.08.2018 20:00:00 26,2 20,1 11 6 NNE 1011,1 10
15.08.2018 19:00:00 28,0 20,0 13 7 N - 10
15.08.2018 18:00:00 30,0 18,0 15 8 O - 10
15.08.2018 17:00:00 30,8 18,2 13 7 O 1010,7 10
15.08.2018 16:00:00 29,0 20,0 18 10 SO - 10
15.08.2018 15:00:00 31,0 21,0 22 12 OSO - 10
15.08.2018 14:00:00 32,2 19,8 13 7 SSO 1010,4 10
15.08.2018 13:00:00 30,0 20,0 5 3 - - 10
15.08.2018 12:00:00 30,0 22,0 16 9 OSO - 10
15.08.2018 11:00:00 30,0 22,7 18 10 OSO 1011,0 10
15.08.2018 10:00:00 28,0 21,0 15 8 O - 10
15.08.2018 09:00:00 28,0 23,0 9 5 ONO - 10
15.08.2018 08:00:00 25,6 22,3 11 6 NNO 1010,7 10
15.08.2018 07:00:00 23,0 22,0 5 3 N - 10
15.08.2018 06:00:00 23,0 22,0 8 4 N - 10
15.08.2018 05:00:00 23,0 21,3 9 5 NNO 1010,7 10
15.08.2018 04:00:00 23,0 21,0 5 3 NNO - 10
15.08.2018 03:00:00 23,0 21,0 9 5 NNO - 10
15.08.2018 02:00:00 23,0 20,7 5 3 SO 1011,1 10
15.08.2018 01:00:00 24,0 21,0 5 3 N - 10
15.08.2018 00:00:00 25,0 22,0 11 6 NNO - 10
14.08.2018 23:00:00 25,8 24,4 5 3 S 1011,1 10
14.08.2018 22:00:00 27,0 25,0 8 4 OSO - 10
14.08.2018 21:00:00 27,0 24,0 9 5 S - 10
14.08.2018 20:00:00 28,8 24,1 11 6 SSO 1010,5 10
14.08.2018 19:00:00 31,0 23,0 11 6 SSE - 10
14.08.2018 18:00:00 32,0 20,0 11 6 SSE - 10
14.08.2018 17:00:00 31,4 19,1 11 6 SE 1010,5 10
14.08.2018 16:00:00 28,0 22,0 15 8 SE - 10
14.08.2018 15:00:00 30,0 26,0 8 4 SSO - 8
14.08.2018 14:00:00 32,2 22,9 5 3 S 1011,2 10
14.08.2018 13:00:00 32,0 22,0 5 3 S - 10
14.08.2018 12:00:00 31,0 23,0 4 2 SSE - 10
14.08.2018 11:00:00 29,8 22,2 8 4 SSE 1012,1 10
14.08.2018 10:00:00 29,0 23,0 5 3 OSO - 10
14.08.2018 09:00:00 27,0 24,0 9 5 SE - 8
14.08.2018 08:00:00 26,6 24,4 5 3 ESE 1012,2 7
14.08.2018 07:00:00 24,0 23,0 5 3 E - 7
14.08.2018 06:00:00 22,0 22,0 0 0 N - 10
14.08.2018 05:00:00 22,6 21,4 0 0 N 1011,7 10
14.08.2018 04:00:00 24,0 23,0 0 0 N - 10
14.08.2018 03:00:00 23,0 22,0 0 0 N - 10
14.08.2018 02:00:00 24,2 23,0 0 0 N 1012,4 10
14.08.2018 01:00:00 24,0 23,0 0 0 N - 10
14.08.2018 00:00:00 25,0 24,0 9 5 SSE - 10
13.08.2018 23:00:00 26,6 24,6 5 3 SSE 1012,3 10
13.08.2018 22:00:00 27,0 25,0 8 4 S - 10
13.08.2018 21:00:00 28,0 23,0 9 5 S - 10
13.08.2018 20:00:00 31,2 22,0 13 7 SSO 1012,0 10
13.08.2018 19:00:00 33,0 22,0 18 10 S - 10
13.08.2018 18:00:00 34,0 21,0 13 7 SSO - 10
13.08.2018 17:00:00 33,8 21,2 18 10 SO 1012,2 10
13.08.2018 16:00:00 35,0 21,0 16 9 OSO - 10
13.08.2018 15:00:00 35,0 20,0 18 10 SO - 10
13.08.2018 14:00:00 34,8 19,2 9 5 O 1013,9 10
13.08.2018 13:00:00 34,0 21,0 13 7 SO - 10
13.08.2018 12:00:00 35,0 21,0 18 10 SSO - 10
13.08.2018 11:00:00 32,4 19,7 4 2 N 1014,6 10
13.08.2018 10:00:00 31,0 22,0 5 3 - - 10

tt = Temperatura
td = dewpoint
ff = velocità del vento
dd = direzione del vento
ppp = reduced air pressure
vv = visibility

Stazioni seguenti

WeatherPro
AMSI
MeteoEarth